{"data":{"norad_id":52863,"epoch":"2026-05-25T02:34:41.617632Z","epoch_age_seconds":64932,"freshness":"FRESH","line1":"1 52863U 22062AK  26145.10742613  .00000215  00000+0  31594-4 0  9991","line2":"2 52863  53.2130  41.0687 0001188  79.7786 280.3340 15.08842568217465","mean_motion":15.08842568,"eccentricity":0.0001188,"inclination_deg":53.213,"raan_deg":41.0687,"arg_perigee_deg":79.7786,"mean_anomaly_deg":280.334,"bstar":3.1594e-5,"rev_number":21746,"period_min":95.437392246213,"perigee_km":538.91369636887,"apogee_km":540.55738288429,"semimajor_km":6917.8725396266,"source":"CELESTRAK","updated_at":"2026-05-25T13:38:17.247834Z"}}